TimeEST,TemperatureF,Dew PointF,Humidity,Sea Level PressureIn,VisibilityMPH,Wind Direction,Wind SpeedMPH,Gust SpeedMPH,PrecipitationIn,Events,Conditions,WindDirDegrees,DateUTC
12:53 AM,75.9,75.0,97,30.00,10.0,SSE,6.9,-,N/A,,Partly Cloudy,150,2011-11-17 05:53:00
1:53 AM,77.0,75.0,94,29.98,10.0,SSE,9.2,-,N/A,,Partly Cloudy,150,2011-11-17 06:53:00
2:53 AM,77.0,75.0,94,29.98,10.0,SSE,5.8,-,N/A,,Clear,160,2011-11-17 07:53:00
3:53 AM,73.9,73.0,97,29.99,10.0,NW,6.9,-,N/A,,Partly Cloudy,320,2011-11-17 08:53:00
4:53 AM,72.0,72.0,100,29.99,9.0,NW,4.6,-,N/A,,Partly Cloudy,320,2011-11-17 09:53:00
5:06 AM,73.4,71.6,94,30.00,9.0,NW,6.9,-,N/A,,Mostly Cloudy,320,2011-11-17 10:06:00
5:16 AM,73.4,73.4,100,30.00,10.0,NW,6.9,-,N/A,,Overcast,320,2011-11-17 10:16:00
5:34 AM,73.4,73.4,100,30.01,0.2,NW,5.8,-,N/A,Fog,Fog,320,2011-11-17 10:34:00
5:53 AM,73.0,73.0,100,30.02,0.1,WNW,3.5,-,N/A,Fog,Fog,300,2011-11-17 10:53:00
6:53 AM,71.1,71.1,100,30.04,0.1,NW,4.6,-,N/A,Fog,Fog,310,2011-11-17 11:53:00
7:23 AM,71.6,71.6,100,30.05,0.1,WNW,5.8,-,N/A,Fog,Fog,300,2011-11-17 12:23:00
7:53 AM,73.0,73.0,100,30.06,0.2,WNW,4.6,-,N/A,Fog,Fog,300,2011-11-17 12:53:00
8:07 AM,73.4,73.4,100,30.07,0.5,WNW,4.6,-,N/A,Fog,Fog,300,2011-11-17 13:07:00
8:24 AM,73.4,73.4,100,30.07,1.0,West,5.8,-,N/A,,Mostly Cloudy,270,2011-11-17 13:24:00
8:32 AM,73.4,73.4,100,30.07,7.0,WSW,3.5,-,N/A,,Scattered Clouds,250,2011-11-17 13:32:00
8:53 AM,75.0,75.0,100,30.07,10.0,West,8.1,-,N/A,,Scattered Clouds,280,2011-11-17 13:53:00
9:53 AM,81.0,75.0,82,30.07,10.0,WSW,8.1,-,N/A,,Scattered Clouds,240,2011-11-17 14:53:00
10:53 AM,82.9,75.0,77,30.06,10.0,West,9.2,-,N/A,,Mostly Cloudy,260,2011-11-17 15:53:00
11:53 AM,84.0,73.9,72,30.04,10.0,SW,5.8,-,N/A,,Mostly Cloudy,230,2011-11-17 16:53:00
12:53 PM,84.0,73.9,72,29.99,10.0,WNW,8.1,-,N/A,,Mostly Cloudy,300,2011-11-17 17:53:00
1:53 PM,84.0,75.9,76,29.95,10.0,SE,10.4,-,N/A,,Mostly Cloudy,130,2011-11-17 18:53:00
2:53 PM,82.9,75.9,79,29.94,10.0,SSE,9.2,-,N/A,,Scattered Clouds,150,2011-11-17 19:53:00
3:53 PM,81.0,75.0,82,29.94,10.0,ESE,10.4,-,N/A,,Scattered Clouds,120,2011-11-17 20:53:00
4:53 PM,81.0,73.9,79,29.96,10.0,SE,8.1,-,N/A,,Mostly Cloudy,130,2011-11-17 21:53:00
5:53 PM,80.1,73.9,81,29.98,10.0,ESE,4.6,-,N/A,,Mostly Cloudy,110,2011-11-17 22:53:00
6:53 PM,79.0,73.9,84,29.99,10.0,SE,3.5,-,N/A,,Scattered Clouds,140,2011-11-17 23:53:00
7:53 PM,78.1,73.9,87,30.01,10.0,SE,4.6,-,N/A,,Scattered Clouds,130,2011-11-18 00:53:00
8:53 PM,75.9,73.0,91,30.02,10.0,SSE,6.9,-,N/A,,Scattered Clouds,150,2011-11-18 01:53:00
9:53 PM,75.9,72.0,87,30.04,10.0,Calm,Calm,-,N/A,,Scattered Clouds,0,2011-11-18 02:53:00
10:53 PM,75.9,72.0,87,30.06,10.0,NNW,12.7,-,N/A,,Mostly Cloudy,340,2011-11-18 03:53:00
11:08 PM,75.2,71.6,89,30.06,10.0,North,9.2,-,0.00,Rain,Light Rain,10,2011-11-18 04:08:00
11:43 PM,73.4,71.6,94,30.05,10.0,Calm,Calm,-,0.08,,Overcast,0,2011-11-18 04:43:00
11:53 PM,75.0,73.0,94,30.06,10.0,ENE,9.2,-,0.08,,Overcast,60,2011-11-18 04:53:00